{"data":{"norad_id":63649,"intl_designator":"2025-083R","name":"STARLINK-33684","alt_names":[],"object_type":"PAYLOAD","status":"ACTIVE","operator":null,"country":"US","launch_date":"2025-04-25","launch_site_code":"AFETR","launch_vehicle":null,"mission":null,"orbit_class":"UNKNOWN","rcs_meters":null,"size_class":null,"mass_kg":null,"dimensions":null,"purposes":["comms"],"wikipedia_slug":null,"has_3d_model":false,"image_url":null,"decayed_at":null,"tle_current":{"epoch":"2026-09-20T11:52:54.815232Z","epoch_age_seconds":153016,"freshness":"FRESH","line1":"1 63649U 25083R   26263.49507888  .00008357  00000+0  31281-3 0  9994","line2":"2 63649  43.0034 344.7182 0001615 271.3251  88.7416 15.27586913 79868","mean_motion":15.27586913,"eccentricity":0.0001615,"inclination_deg":43.0034,"raan_deg":344.7182,"arg_perigee_deg":271.3251,"mean_anomaly_deg":88.7416,"bstar":0.00031281,"rev_number":7986,"period_min":94.266322115317,"perigee_km":481.92031789731,"apogee_km":484.13647432025,"semimajor_km":6861.1653961088,"source":"CELESTRAK","updated_at":"2026-09-21T09:00:35.053881Z"}}}